EW9593 Weather Reports


Display with metric or nautical units.
time (UTC)temp
F
wind
direction
speed
MPH
gust
MPH
rain 1hr
in
rain 24hr
in
rain mn
in
humidity
%
barometer
mb
20190326051012 53 67 0.0 0.0 0.00 0.00 0.00 74 1025.8
20190326050512 54 67 0.0 0.0 0.00 0.00 0.00 73 1025.7
20190326050016 55 67 0.0 0.0 0.00 0.00 0.00 73 1025.7
20190326045512 56 67 0.0 1.0 0.00 0.00 0.00 72 1025.6
20190326045012 56 90 0.0 0.0 0.00 0.00 0.00 70 1025.6
20190326044511 56 90 0.0 0.0 0.00 0.00 0.00 70 1025.7
20190326044013 56 90 0.0 0.0 0.00 0.00 0.00 71 1025.6
20190326043511 56 90 0.0 0.0 0.00 0.00 0.00 71 1025.7
20190326043012 56 90 0.0 0.0 0.00 0.00 0.00 70 1025.6
20190326042511 56 90 0.0 0.0 0.00 0.00 0.00 69 1025.6
20190326042012 57 90 0.0 0.0 0.00 0.00 0.00 69 1025.5
20190326041510 57 90 0.0 1.0 0.00 0.00 0.00 67 1025.4
20190326041012 58 90 0.0 0.0 0.00 0.00 0.00 66 1025.3
20190326040519 58 90 0.0 0.0 0.00 0.00 0.00 64 1025.3
20190326040010 59 90 0.0 0.0 0.00 0.00 0.00 63 1025.3
20190326035511 60 90 0.0 0.0 0.00 0.00 0.00 61 1025.3
20190326035014 61 90 0.0 0.0 0.00 0.00 0.00 59 1025.3
20190326034514 62 90 0.0 0.0 0.00 0.00 0.00 58 1025.1
20190326034013 62 90 1.0 2.0 0.00 0.00 0.00 59 1025.0
20190326033511 62 87 2.0 4.0 0.00 0.00 0.00 58 1024.8
20190326033015 62 57 3.0 4.0 0.00 0.00 0.00 59 1024.8
20190326032511 62 89 2.0 4.0 0.00 0.00 0.00 59 1024.8
20190326032013 62 67 2.0 3.0 0.00 0.00 0.00 58 1024.7
20190326031511 62 90 1.0 2.0 0.00 0.00 0.00 56 1024.7
20190326031013 62 90 2.0 2.0 0.00 0.00 0.00 57 1024.6
20190326030511 63 90 3.0 4.0 0.00 0.00 0.00 56 1024.6
20190326030013 63 81 4.0 5.0 0.00 0.00 0.00 55 1024.6
20190326025511 63 79 3.0 4.0 0.00 0.00 0.00 54 1024.5
20190326025013 63 88 3.0 4.0 0.00 0.00 0.00 55 1024.4
20190326024510 63 90 3.0 4.0 0.00 0.00 0.00 54 1024.4
20190326024013 64 81 4.0 6.0 0.00 0.00 0.00 54 1024.3
20190326023511 64 78 4.0 6.0 0.00 0.00 0.00 53 1024.1
20190326023012 64 69 4.0 5.0 0.00 0.00 0.00 53 1024.1
20190326022511 64 77 4.0 5.0 0.00 0.00 0.00 53 1024.0
20190326022012 64 85 3.0 4.0 0.00 0.00 0.00 53 1023.9
20190326021511 64 90 3.0 4.0 0.00 0.00 0.00 51 1023.8
20190326021012 64 79 3.0 5.0 0.00 0.00 0.00 51 1023.8
20190326020511 65 90 3.0 4.0 0.00 0.00 0.00 52 1023.7
20190326020014 65 90 3.0 5.0 0.00 0.00 0.00 50 1023.6
20190326015511 65 67 4.0 5.0 0.00 0.00 0.00 50 1023.6
20190326015012 66 69 4.0 5.0 0.00 0.00 0.00 50 1023.5
20190326014511 66 72 4.0 5.0 0.00 0.00 0.00 49 1023.5
20190326014012 66 77 4.0 6.0 0.00 0.00 0.00 48 1023.4
20190326013510 66 75 4.0 6.0 0.00 0.00 0.00 48 1023.4
20190326013014 66 78 3.0 4.0 0.00 0.00 0.00 48 1023.3
20190326012511 67 72 3.0 4.0 0.00 0.00 0.00 47 1023.2
20190326012012 67 90 3.0 4.0 0.00 0.00 0.00 46 1023.2
20190326011511 68 67 3.0 5.0 0.00 0.00 0.00 46 1023.1
20190326011013 68 73 4.0 5.0 0.00 0.00 0.00 45 1023.0
20190326010511 69 67 4.0 5.0 0.00 0.00 0.00 44 1022.9
20190326010013 69 90 4.0 5.0 0.00 0.00 0.00 44 1022.9
20190326005511 69 82 4.0 5.0 0.00 0.00 0.00 44 1022.9
20190326005013 70 70 4.0 5.0 0.00 0.00 0.00 42 1022.9
20190326004511 70 69 3.0 4.0 0.00 0.00 0.00 42 1022.9
20190326004013 71 86 4.0 5.0 0.00 0.00 0.00 41 1022.8
20190326003511 71 86 5.0 7.0 0.00 0.00 0.00 41 1022.7
20190326003014 72 81 5.0 8.0 0.00 0.00 0.00 39 1022.7
20190326002511 72 73 6.0 9.0 0.00 0.00 0.00 39 1022.5
20190326002014 73 75 6.0 10.0 0.00 0.00 0.00 39 1022.5
20190326001511 73 89 6.0 9.0 0.00 0.00 0.00 39 1022.6
20190326001014 74 87 5.0 7.0 0.00 0.00 0.00 38 1022.5
20190326000511 74 83 7.0 11.0 0.00 0.00 0.00 39 1022.4
20190326000013 74 76 7.0 11.0 0.00 0.00 0.00 40 1022.4
20190325235510 75 88 6.0 9.0 0.00 0.00 0.00 40 1022.3
20190325235012 75 78 6.0 11.0 0.00 0.00 0.00 39 1022.2
20190325234511 75 84 7.0 11.0 0.00 0.00 0.00 41 1022.1
20190325234013 75 94 7.0 11.0 0.00 0.00 0.00 41 1022.1
20190325233511 76 93 5.0 8.0 0.00 0.00 0.00 41 1022.1
20190325233013 76 89 6.0 10.0 0.00 0.00 0.00 41 1022.1
20190325232511 76 118 5.0 8.0 0.00 0.00 0.00 41 1022.1
20190325232012 76 85 7.0 11.0 0.00 0.00 0.00 42 1022.1
20190325231510 76 89 8.0 13.0 0.00 0.00 0.00 42 1022.1
20190325231013 77 97 8.0 14.0 0.00 0.00 0.00 43 1021.9
20190325230511 77 87 6.0 10.0 0.00 0.00 0.00 44 1021.9
20190325230013 76 84 4.0 7.0 0.00 0.00 0.00 44 1021.9
20190325225511 77 92 8.0 11.0 0.00 0.00 0.00 43 1021.8
20190325225015 77 85 6.0 10.0 0.00 0.00 0.00 44 1021.8
20190325224510 77 101 6.0 10.0 0.00 0.00 0.00 45 1021.8
20190325224011 77 57 7.0 11.0 0.00 0.00 0.00 47 1021.6
20190325223513 77 74 6.0 10.0 0.00 0.00 0.00 47 1021.7
20190325223014 77 70 4.0 7.0 0.00 0.00 0.00 49 1021.7
20190325222512 77 83 6.0 10.0 0.00 0.00 0.00 48 1021.7
20190325222014 76 91 6.0 10.0 0.00 0.00 0.00 48 1021.6
20190325221513 77 91 6.0 8.0 0.00 0.00 0.00 47 1021.7
20190325221013 77 82 8.0 11.0 0.00 0.00 0.00 48 1021.6
20190325220512 77 53 5.0 9.0 0.00 0.00 0.00 49 1021.6
20190325220013 77 58 5.0 8.0 0.00 0.00 0.00 49 1021.6
20190325215511 77 85 6.0 10.0 0.00 0.00 0.00 50 1021.7
20190325215013 76 57 5.0 7.0 0.00 0.00 0.00 52 1021.7
20190325214512 76 89 6.0 11.0 0.00 0.00 0.00 52 1021.7
20190325214012 76 78 8.0 13.0 0.00 0.00 0.00 51 1021.7
20190325213511 76 81 5.0 9.0 0.00 0.00 0.00 53 1021.7
20190325213012 76 62 6.0 10.0 0.00 0.00 0.00 52 1021.7
20190325212511 77 81 8.0 12.0 0.00 0.00 0.00 53 1021.7
20190325212012 76 93 5.0 9.0 0.00 0.00 0.00 52 1021.7
20190325211511 77 63 6.0 10.0 0.00 0.00 0.00 51 1021.7
20190325211013 77 70 7.0 11.0 0.00 0.00 0.00 51 1021.7
20190325210512 77 86 7.0 12.0 0.00 0.00 0.00 51 1021.7
20190325210013 77 66 6.0 10.0 0.00 0.00 0.00 51 1021.7
20190325205511 76 75 7.0 11.0 0.00 0.00 0.00 53 1021.7
20190325205013 76 52 6.0 10.0 0.00 0.00 0.00 56 1021.8
20190325204512 75 71 7.0 11.0 0.00 0.00 0.00 57 1021.9
20190325204012 75 83 6.0 8.0 0.00 0.00 0.00 57 1021.9
20190325203511 76 79 9.0 14.0 0.00 0.00 0.00 57 1021.7
20190325203014 76 96 5.0 9.0 0.00 0.00 0.00 57 1022.0
20190325202511 76 59 5.0 8.0 0.00 0.00 0.00 57 1022.0
20190325202013 75 68 8.0 14.0 0.00 0.00 0.00 58 1021.9
20190325201512 75 124 4.0 6.0 0.00 0.00 0.00 59 1022.1
20190325201013 75 72 6.0 10.0 0.00 0.00 0.00 59 1022.0
20190325200512 76 96 6.0 10.0 0.00 0.00 0.00 58 1022.1
20190325200014 76 91 7.0 11.0 0.00 0.00 0.00 59 1022.0
20190325195511 76 114 7.0 11.0 0.00 0.00 0.00 59 1022.1
20190325195013 76 85 5.0 9.0 0.00 0.00 0.00 59 1022.1
20190325194511 76 19 3.0 6.0 0.00 0.00 0.00 60 1022.1
20190325194013 76 75 6.0 10.0 0.00 0.00 0.00 60 1022.2
20190325193512 75 98 4.0 8.0 0.00 0.00 0.00 60 1022.2
20190325193013 75 68 6.0 10.0 0.00 0.00 0.00 59 1022.2
20190325192510 76 69 4.0 7.0 0.00 0.00 0.00 58 1022.2
20190325192013 76 68 6.0 9.0 0.00 0.00 0.00 58 1022.2
20190325191511 76 54 3.0 7.0 0.00 0.00 0.00 58 1022.3
20190325191014 77 68 4.0 7.0 0.00 0.00 0.00 58 1022.2
20190325190512 77 57 4.0 8.0 0.00 0.00 0.00 59 1022.3
20190325190013 77 26 5.0 7.0 0.00 0.00 0.00 58 1022.3
20190325185511 78 45 4.0 8.0 0.00 0.00 0.00 58 1022.3
20190325185012 77 56 3.0 6.0 0.00 0.00 0.00 60 1022.4
20190325184511 77 44 2.0 7.0 0.00 0.00 0.00 60 1022.5
20190325184013 77 24 4.0 8.0 0.00 0.00 0.00 61 1022.5
20190325183511 76 47 3.0 6.0 0.00 0.00 0.00 60 1022.6
20190325183015 76 11 3.0 5.0 0.00 0.00 0.00 61 1022.6
20190325182512 76 2 5.0 8.0 0.00 0.00 0.00 61 1022.6
20190325182012 76 22 4.0 8.0 0.00 0.00 0.00 64 1022.5
20190325181511 75 11 4.0 6.0 0.00 0.00 0.00 64 1022.6
20190325181012 75 58 3.0 6.0 0.00 0.00 0.00 65 1022.6
20190325180511 75 62 4.0 7.0 0.00 0.00 0.00 66 1022.6
20190325180013 75 76 6.0 9.0 0.00 0.00 0.00 67 1022.6
20190325175511 75 72 4.0 7.0 0.00 0.00 0.00 68 1022.7
20190325175013 75 15 5.0 8.0 0.00 0.00 0.00 69 1022.6
20190325174511 75 49 5.0 8.0 0.00 0.00 0.00 69 1022.8
20190325174012 74 44 5.0 8.0 0.00 0.00 0.00 69 1022.8
20190325173511 74 83 5.0 10.0 0.00 0.00 0.00 69 1022.8
20190325173015 75 65 6.0 10.0 0.00 0.00 0.00 69 1022.8
20190325172511 75 351 3.0 6.0 0.00 0.00 0.00 68 1022.7
20190325172012 74 7 4.0 6.0 0.00 0.00 0.00 70 1022.7
20190325171511 74 55 4.0 5.0 0.00 0.00 0.00 71 1022.8
20190325171013 74 60 6.0 9.0 0.00 0.00 0.00 72 1022.8
20190325170511 73 85 4.0 8.0 0.00 0.00 0.00 74 1023.0
20190325170013 73 38 3.0 6.0 0.00 0.00 0.00 74 1023.0
20190325165511 73 61 4.0 9.0 0.00 0.00 0.00 74 1022.9
20190325165012 72 71 5.0 11.0 0.00 0.00 0.00 77 1022.9
20190325164510 72 69 7.0 11.0 0.00 0.00 0.00 79 1023.0
20190325164012 71 57 6.0 10.0 0.00 0.00 0.00 80 1022.9
20190325163511 71 71 6.0 11.0 0.00 0.00 0.00 81 1023.0
20190325163014 71 52 3.0 6.0 0.00 0.00 0.00 81 1023.0
20190325162511 71 14 2.0 5.0 0.00 0.00 0.00 82 1023.0
20190325162013 71 60 3.0 5.0 0.00 0.00 0.00 83 1023.0
20190325161511 71 339 2.0 5.0 0.00 0.00 0.00 84 1023.0
20190325161013 70 63 3.0 6.0 0.00 0.00 0.00 85 1023.0
20190325160512 70 45 3.0 5.0 0.00 0.00 0.00 87 1023.0
20190325160014 70 43 2.0 5.0 0.00 0.00 0.00 89 1023.1
20190325155511 69 31 3.0 6.0 0.00 0.00 0.00 91 1023.1
20190325155013 68 47 2.0 5.0 0.00 0.00 0.00 91 1023.1
20190325154511 68 4 2.0 4.0 0.00 0.00 0.00 92 1023.1
20190325154013 67 28 2.0 4.0 0.00 0.00 0.00 93 1023.1
20190325153511 67 62 2.0 4.0 0.00 0.00 0.00 92 1023.1
20190325153013 67 65 3.0 5.0 0.00 0.00 0.00 93 1022.9
20190325152511 67 48 2.0 4.0 0.00 0.00 0.00 92 1022.9
20190325152012 68 59 4.0 7.0 0.00 0.00 0.00 93 1022.8
20190325151511 67 58 1.0 4.0 0.00 0.00 0.00 93 1022.7
20190325151013 67 50 3.0 7.0 0.00 0.00 0.00 94 1022.8
20190325150511 67 35 3.0 5.0 0.00 0.00 0.00 94 1022.6
20190325150014 67 46 2.0 4.0 0.00 0.00 0.00 94 1022.7
20190325145510 67 39 2.0 4.0 0.00 0.00 0.00 95 1022.6
20190325145013 67 82 1.0 3.0 0.00 0.00 0.00 94 1022.5
20190325144511 67 40 2.0 4.0 0.00 0.00 0.00 95 1022.6
20190325144013 67 2 3.0 5.0 0.00 0.00 0.00 96 1022.5
20190325143512 67 23 1.0 2.0 0.00 0.00 0.00 96 1022.5
20190325143014 67 6 0.0 0.0 0.00 0.00 0.00 96 1022.4
20190325142512 67 45 0.0 0.0 0.00 0.00 0.00 95 1022.4
20190325142014 67 45 0.0 0.0 0.00 0.00 0.00 95 1022.2
20190325141511 67 45 0.0 0.0 0.00 0.00 0.00 96 1022.1
20190325141014 67 34 0.0 0.0 0.00 0.00 0.00 95 1022.2
20190325140512 67 360 0.0 0.0 0.00 0.00 0.00 96 1022.0
20190325140013 67 360 0.0 0.0 0.00 0.00 0.00 96 1022.0
20190325135511 67 360 0.0 0.0 0.00 0.00 0.00 96 1022.0
20190325135013 67 360 0.0 0.0 0.00 0.00 0.00 96 1021.9
20190325134510 67 360 0.0 0.0 0.00 0.00 0.00 96 1021.8
20190325134012 67 360 1.0 1.0 0.00 0.00 0.00 95 1021.6
20190325133511 66 315 0.0 0.0 0.00 0.00 0.00 96 1021.5
20190325133014 66 315 1.0 2.0 0.00 0.00 0.00 96 1021.3
20190325132511 66 315 1.0 2.0 0.00 0.00 0.00 95 1021.3
20190325132013 66 292 0.0 1.0 0.00 0.00 0.00 96 1021.0
20190325131511 66 271 2.0 3.0 0.00 0.00 0.00 96 1020.9
20190325131013 66 270 1.0 2.0 0.00 0.00 0.00 96 1020.8
20190325130512 66 278 2.0 2.0 0.00 0.00 0.00 96 1020.7
20190325130013 66 269 3.0 5.0 0.00 0.00 0.00 95 1020.6
20190325125512 66 270 1.0 3.0 0.00 0.00 0.00 96 1020.6
20190325125013 66 268 1.0 2.0 0.00 0.00 0.00 97 1020.6
20190325124511 66 270 2.0 3.0 0.00 0.00 0.00 96 1020.5
20190325124012 66 270 1.0 2.0 0.00 0.00 0.00 96 1020.5
20190325123512 66 292 2.0 3.0 0.00 0.00 0.00 96 1020.4
20190325123014 66 270 2.0 3.0 0.00 0.00 0.00 95 1020.3
20190325122511 66 263 3.0 4.0 0.00 0.00 0.00 96 1020.2
20190325122012 66 270 2.0 3.0 0.00 0.00 0.00 96 1020.1
20190325121511 66 270 2.0 4.0 0.00 0.00 0.00 95 1020.0
20190325121012 66 268 3.0 4.0 0.00 0.00 0.00 95 1019.9
20190325120015 66 270 3.0 5.0 0.00 0.00 0.00 95 1019.7
20190325115510 66 263 2.0 5.0 0.00 0.00 0.00 94 1019.7
20190325115013 66 266 4.0 8.0 0.00 0.00 0.00 95 1019.7
20190325114512 66 262 4.0 6.0 0.00 0.00 0.00 95 1019.6
20190325114012 66 269 2.0 5.0 0.00 0.00 0.00 95 1019.6
20190325113511 66 265 3.0 6.0 0.00 0.00 0.00 95 1019.5
20190325113014 66 263 5.0 8.0 0.00 0.00 0.00 94 1019.5
20190325112511 66 271 4.0 7.0 0.00 0.00 0.00 95 1019.3
20190325112012 66 266 2.0 4.0 0.00 0.00 0.00 96 1019.4
20190325111511 66 244 2.0 4.0 0.00 0.00 0.00 95 1019.4
20190325111012 66 258 4.0 7.0 0.00 0.00 0.00 96 1019.4
20190325110511 66 268 6.0 10.0 0.00 0.00 0.00 95 1019.4
20190325110013 66 270 3.0 6.0 0.00 0.00 0.00 95 1019.4
20190325105512 66 274 5.0 9.0 0.00 0.00 0.00 95 1019.4
20190325105012 66 265 3.0 6.0 0.00 0.00 0.00 96 1019.3
20190325104511 66 262 4.0 6.0 0.00 0.00 0.00 95 1019.4
20190325104012 66 267 3.0 6.0 0.00 0.00 0.00 96 1019.2
20190325103511 66 255 3.0 6.0 0.00 0.00 0.00 96 1019.2
20190325103014 66 260 2.0 5.0 0.00 0.00 0.00 96 1019.1
20190325102512 66 255 3.0 5.0 0.00 0.00 0.00 96 1019.4
20190325102013 66 244 4.0 8.0 0.00 0.00 0.00 96 1019.3
20190325101511 66 236 2.0 5.0 0.00 0.00 0.00 96 1019.2
20190325101012 66 242 3.0 7.0 0.00 0.00 0.00 95 1019.2
20190325100511 66 259 3.0 8.0 0.00 0.00 0.00 96 1019.1
20190325100013 66 240 2.0 4.0 0.00 0.00 0.00 96 1019.1
20190325095511 66 262 3.0 6.0 0.00 0.00 0.00 95 1019.2
20190325095012 66 230 2.0 4.0 0.00 0.00 0.00 95 1019.3
20190325094511 66 246 3.0 7.0 0.00 0.00 0.00 95 1019.2
20190325094013 66 252 3.0 8.0 0.00 0.00 0.00 95 1019.2
20190325093510 66 255 2.0 5.0 0.00 0.00 0.00 94 1019.2
20190325093014 66 259 2.0 6.0 0.00 0.00 0.00 94 1019.2
20190325092511 66 256 2.0 4.0 0.00 0.00 0.00 94 1019.1
20190325092013 66 231 2.0 5.0 0.00 0.00 0.00 94 1019.2
20190325091012 66 246 4.0 9.0 0.00 0.00 0.00 95 1019.1
20190325090510 66 242 3.0 7.0 0.00 0.00 0.00 94 1019.1
20190325090013 66 253 3.0 8.0 0.00 0.00 0.00 94 1019.2
20190325085510 66 232 2.0 6.0 0.00 0.00 0.00 94 1019.2
20190325085013 66 248 3.0 7.0 0.00 0.00 0.00 94 1019.3
20190325084510 66 246 2.0 6.0 0.00 0.00 0.00 93 1019.3
20190325084012 66 246 1.0 2.0 0.00 0.00 0.00 94 1019.2
20190325083512 66 229 1.0 4.0 0.00 0.00 0.00 93 1019.3
20190325083014 66 218 1.0 4.0 0.00 0.00 0.00 93 1019.3
20190325082510 66 227 2.0 4.0 0.00 0.00 0.00 92 1019.3
20190325082011 66 226 1.0 3.0 0.00 0.00 0.00 92 1019.4
20190325081510 66 244 1.0 4.0 0.00 0.00 0.00 93 1019.4
20190325081012 66 234 2.0 8.0 0.00 0.00 0.00 93 1019.5
20190325080510 66 232 2.0 6.0 0.00 0.00 0.00 93 1019.6
20190325080014 66 237 2.0 5.0 0.00 0.00 0.00 92 1019.6
20190325075510 66 263 2.0 5.0 0.00 0.00 0.00 92 1019.7
20190325075012 66 221 1.0 4.0 0.00 0.00 0.00 92 1019.7
20190325074511 66 236 3.0 5.0 0.00 0.00 0.00 92 1019.8
20190325074011 67 241 2.0 4.0 0.00 0.00 0.00 92 1019.9
20190325073511 67 222 2.0 5.0 0.00 0.00 0.00 91 1019.8
20190325073013 67 242 3.0 8.0 0.00 0.00 0.00 90 1019.8
20190325072510 67 226 2.0 4.0 0.00 0.00 0.00 91 1019.7
20190325072012 67 231 3.0 5.0 0.00 0.00 0.00 91 1019.8
20190325071510 67 240 1.0 4.0 0.00 0.00 0.00 90 1019.9
20190325071012 67 243 2.0 7.0 0.00 0.00 0.00 90 1020.0
20190325070512 67 251 2.0 4.0 0.00 0.00 0.00 91 1020.1
20190325070012 67 221 2.0 4.0 0.00 0.00 0.00 90 1020.0
20190325065510 67 205 1.0 3.0 0.00 0.00 0.00 90 1020.0
20190325065011 67 248 2.0 5.0 0.00 0.00 0.00 90 1020.0
20190325064511 67 226 2.0 3.0 0.00 0.00 0.00 89 1020.0
20190325064011 67 239 2.0 6.0 0.00 0.00 0.00 89 1020.0
20190325063511 67 237 3.0 9.0 0.00 0.00 0.00 90 1020.0
20190325063013 67 222 2.0 5.0 0.00 0.00 0.00 89 1020.0
20190325062511 67 244 2.0 4.0 0.00 0.00 0.00 89 1020.0
20190325062012 67 221 2.0 5.0 0.00 0.00 0.00 91 1019.9
20190325061510 67 224 2.0 3.0 0.00 0.00 0.00 91 1020.0
20190325061012 68 225 2.0 3.0 0.00 0.00 0.00 91 1020.1
20190325060511 68 228 2.0 4.0 0.00 0.00 0.00 89 1020.1
20190325060012 68 201 1.0 3.0 0.00 0.00 0.00 90 1020.1
20190325055511 68 236 2.0 5.0 0.00 0.00 0.00 89 1020.1
20190325055011 68 223 2.0 3.0 0.00 0.00 0.00 90 1020.1
20190325054511 68 226 1.0 3.0 0.00 0.00 0.00 90 1020.1
20190325054012 68 213 2.0 4.0 0.00 0.00 0.00 90 1020.2
20190325053511 68 227 1.0 3.0 0.00 0.00 0.00 90 1020.3
20190325053013 68 238 1.0 3.0 0.00 0.00 0.00 90 1020.4
20190325052510 68 203 1.0 4.0 0.00 0.00 0.00 90 1020.4
20190325052011 68 212 2.0 4.0 0.00 0.00 0.00 90 1020.3
20190325051510 68 199 1.0 2.0 0.00 0.00 0.00 89 1020.4